TimeEDT,TemperatureF,Dew PointF,Humidity,Sea Level PressureIn,VisibilityMPH,Wind Direction,Wind SpeedMPH,Gust SpeedMPH,PrecipitationIn,Events,Conditions,WindDirDegrees,DateUTC
12:51 AM,64.0,61.0,90,30.10,9.0,SSE,5.8,-,N/A,,Overcast,160,2011-09-21 04:51:00
1:51 AM,62.1,61.0,96,30.10,6.0,SE,5.8,-,N/A,,Mostly Cloudy,140,2011-09-21 05:51:00
2:51 AM,61.0,60.1,97,30.10,2.0,SE,6.9,-,N/A,Fog,Scattered Clouds,130,2011-09-21 06:51:00
3:02 AM,60.8,60.8,100,30.11,0.8,SE,5.8,-,N/A,Fog,Mostly Cloudy,140,2011-09-21 07:02:00
3:51 AM,61.0,60.1,97,30.10,0.5,SE,5.8,-,N/A,Fog,Fog,140,2011-09-21 07:51:00
4:51 AM,61.0,61.0,100,30.09,0.5,SE,4.6,-,N/A,Fog,Fog,140,2011-09-21 08:51:00
5:51 AM,61.0,60.1,97,30.09,0.8,SE,6.9,-,N/A,Fog,Mostly Cloudy,140,2011-09-21 09:51:00
6:41 AM,60.8,60.8,100,30.10,1.2,SE,9.2,-,N/A,Fog,Mostly Cloudy,130,2011-09-21 10:41:00
6:51 AM,61.0,60.1,97,30.09,1.2,SE,8.1,-,N/A,Fog,Mostly Cloudy,130,2011-09-21 10:51:00
7:22 AM,60.8,60.8,100,30.10,1.8,ESE,6.9,-,N/A,Fog,Mostly Cloudy,120,2011-09-21 11:22:00
7:43 AM,60.8,60.8,100,30.10,2.5,ESE,6.9,-,N/A,,Overcast,120,2011-09-21 11:43:00
7:51 AM,62.6,60.8,94,30.09,2.5,SE,8.1,-,N/A,,Mostly Cloudy,130,2011-09-21 11:51:00
8:51 AM,63.0,61.0,93,30.08,3.0,SE,10.4,-,N/A,,Mostly Cloudy,140,2011-09-21 12:51:00
9:51 AM,66.9,61.0,81,30.08,10.0,SSE,8.1,-,N/A,,Mostly Cloudy,160,2011-09-21 13:51:00
10:51 AM,69.1,62.1,78,30.07,10.0,SE,9.2,-,N/A,,Mostly Cloudy,140,2011-09-21 14:51:00
11:51 AM,70.0,62.1,76,30.05,10.0,SSE,6.9,-,N/A,,Overcast,160,2011-09-21 15:51:00
12:51 PM,73.0,63.0,71,30.04,10.0,South,9.2,-,N/A,,Overcast,180,2011-09-21 16:51:00
1:51 PM,75.9,62.1,62,30.02,10.0,South,10.4,19.6,N/A,,Mostly Cloudy,170,2011-09-21 17:51:00
2:51 PM,78.1,63.0,60,30.00,10.0,South,8.1,-,N/A,,Mostly Cloudy,180,2011-09-21 18:51:00
3:51 PM,77.0,61.0,58,29.98,10.0,South,9.2,18.4,N/A,,Mostly Cloudy,180,2011-09-21 19:51:00
4:51 PM,75.9,62.1,62,29.99,10.0,South,8.1,-,N/A,,Mostly Cloudy,190,2011-09-21 20:51:00
5:13 PM,71.6,64.4,78,30.01,2.0,WSW,13.8,19.6,0.01,Rain,Rain,250,2011-09-21 21:13:00
5:19 PM,69.8,64.4,83,30.01,8.0,West,9.2,19.6,0.15,Rain,Light Rain,260,2011-09-21 21:19:00
5:51 PM,69.8,66.2,88,30.01,10.0,SW,3.5,-,N/A,,Mostly Cloudy,220,2011-09-21 21:51:00
6:51 PM,69.1,66.0,90,30.00,10.0,WNW,3.5,-,0.00,,Overcast,300,2011-09-21 22:51:00
7:51 PM,68.0,66.0,93,30.01,8.0,SSE,5.8,-,0.00,Rain,Light Rain,160,2011-09-21 23:51:00
8:21 PM,66.2,62.6,88,30.02,10.0,South,5.8,-,0.00,Thunderstorm,Thunderstorm,180,2011-09-22 00:21:00
8:51 PM,66.2,62.6,88,30.03,10.0,South,8.1,-,N/A,Rain-Thunderstorm,Light Thunderstorms and Rain,170,2011-09-22 00:51:00
9:14 PM,66.2,62.6,88,30.03,10.0,South,5.8,-,0.00,,Mostly Cloudy,170,2011-09-22 01:14:00
9:51 PM,66.0,63.0,90,30.03,10.0,South,6.9,-,0.00,,Scattered Clouds,180,2011-09-22 01:51:00
10:15 PM,66.2,64.4,94,30.04,10.0,South,6.9,-,N/A,,Mostly Cloudy,180,2011-09-22 02:15:00
10:51 PM,66.0,64.0,93,30.03,10.0,South,5.8,-,N/A,,Mostly Cloudy,180,2011-09-22 02:51:00
11:12 PM,66.2,64.4,94,30.04,10.0,South,6.9,-,N/A,,Overcast,180,2011-09-22 03:12:00
11:51 PM,66.0,64.0,93,30.03,10.0,South,5.8,-,N/A,,Mostly Cloudy,170,2011-09-22 03:51:00